Location: Huppendorf
(49.9333°N, 11.1500°E)
Time: 11:06:51
(UTC+00:00)

STARLINK-1057 - Pass Details

Date: 27 February 2020
Orbit: 549 x 550 km, 53.0° (Epoch: 09 April)

Event Time Altitude Azimuth Distance (km) Brightness Sun altitude
Rises 17:28:39 0° 243° (WSW) 2,714 8.7 -6.5°
Reaches altitude 10° 17:30:52 10° 242° (WSW) 1,823 7.6 -6.8°
Maximum altitude 17:35:01 82° 157° (SSE) 562 3.6 -7.5°
Drops below altitude 10° 17:39:11 10° 69° (ENE) 1,830 5.7 -8.1°
Enters shadow 17:39:17 - 69° (ENE) 1,874 5.7 -8.2°
